Regional Weather Roundup
Issued by NWS

Home | Current Version | Previous Version | Text Only | Print | Product List | Glossary Off
Versions: 1 2 3 4 5 6 7 8 9 10 11 12 13 14 15 16 17 18 19 20 21 22 23 24 25 26 27 28 29 30 31 32 33 34 35 36 37 38 39 40 41 42 43 44 45 46 47 48 49 50

000
ASUS43 KIND 282059
RWRIN

WEATHER ROUNDUP FOR INDIANA
NATIONAL WEATHER SERVICE INDIANAPOLIS IN
500 PM EDT SAT MAY 28 2016

NOTE: "FAIR" INDICATES FEW OR NO CLOUDS BELOW 12,000 FEET WITH NO
SIGNIFICANT WEATHER AND/OR OBSTRUCTIONS TO VISIBILITY.

* - STATION DOES NOT REPORT WEATHER SUCH AS PRECIPITATION OR FOG.

+ - STATION NOT QUALITY CONTROLLED BY THE NATIONAL WEATHER SERVICE.
    USE DATA WITH CAUTION...ESPECIALLY DEWPOINT AND RELATIVE
    HUMIDITY OBSERVATIONS.

INZ001>003-010>013-019-020-282200-
NORTHWEST INDIANA

CITY           SKY/WX    TMP DP  RH WIND       PRES   REMARKS
GARY /AIRPORT/ PTSUNNY   82  72  69 S9G29     29.93F
RENSSELAER +   MOSUNNY   82  64  54 S18G24    29.96F

$$

LMZ046-743>745-282200-
SOUTHERN LAKE MICHIGAN

STATION/POSITION TIME  TEMP    WIND        PRES    WAVE
                       AIR SEA DIR/SP/G            HT
                 (UTC) (F)     (DEG/KT/KT) (MB)    (FT)
BURNS HARBOR     2000   77     200/ 18/ 27 1013.9F
MICHIGAN CITY    2000   78     180/ 16/ 19   N/A
5NW MICH CITY    2000   70 58  220/ 14/ 17   N/A     2

$$

INZ004-005-014>016-021>024-282200-
NORTH CENTRAL INDIANA

CITY           SKY/WX    TMP DP  RH WIND       PRES   REMARKS
ELKHART        MOSUNNY   84  66  54 SW13      29.97F
GOSHEN         MOSUNNY   85  57  38 SW21G29   29.97S
SOUTH BEND     MOSUNNY   83  60  45 SW22G28   29.96F

$$

INZ006>009-017-018-025>027-282200-
NORTHEAST INDIANA

CITY           SKY/WX    TMP DP  RH WIND       PRES   REMARKS
ANGOLA *+        N/A     88  57  35 S15       29.98F
FORT WAYNE     CLOUDY    87  61  41 SW18      30.00F

$$

INZ028-029-035-036-043>045-051>053-282200-
WEST CENTRAL INDIANA

CITY           SKY/WX    TMP DP  RH WIND       PRES   REMARKS
CRAWFORDSVL +  CLOUDY    75  65  70 S12       30.00R
GREENCASTLE +  CLOUDY    72  72 100 S7        30.01F
LAFAYETTE      CLOUDY    82  59  45 S13G23    29.97S
TERRE HAUTE    MOSUNNY   83  61  47 SW20G26   29.99S

$$

INZ030>032-037>040-046>048-054>057-064-065-282200-
CENTRAL INDIANA

CITY           SKY/WX    TMP DP  RH WIND       PRES   REMARKS
INDIANAPOLIS   NOT AVBL
-EAGLE CREEK   CLOUDY    81  63  54 S14G22    30.00S
KOKOMO *+      CLOUDY    82  61  47 S16G23    29.98S
SHELBYVILLE    CLOUDY    83  62  49 SW20G28   30.03R

$$

INZ033-034-041-042-049-050-058-059-282200-
EAST CENTRAL INDIANA

CITY           SKY/WX    TMP DP  RH WIND       PRES   REMARKS
MUNCIE         LGT RAIN  83  63  50 SW10G18   30.03R

$$

INZ060-061-067>069-081>083-085>088-282200-
SOUTHWEST INDIANA

CITY           SKY/WX    TMP DP  RH WIND       PRES   REMARKS
EVANSVILLE     CLOUDY    81  62  52 S17G25    30.02S
HUNTINGBURG *+ CLOUDY    79  64  61 S16       30.03S

$$

INZ062-063-066-070>080-084-089>092-282200-
SOUTH CENTRAL AND SOUTHEAST INDIANA

CITY           SKY/WX    TMP DP  RH WIND       PRES   REMARKS
BLOOMINGTON    CLOUDY    79  65  62 S14       30.03S
MADISON *+     CLOUDY    75  64  69 SW5       30.09R
SEYMOUR +      CLOUDY    81  68  65 S7        30.04F

$$




USA.gov is the U.S. government's official web portal to all federal, state and local government web resources and services.